Regional Weather Roundup
Issued by NWS

Home | Current Version | Previous Version | Text Only | Print | Product List | Glossary Off
Versions: 1 2 3 4 5 6 7 8 9 10 11 12 13 14 15 16 17 18 19 20 21 22 23 24 25 26 27 28 29 30 31 32 33 34 35 36 37 38 39 40 41 42 43 44 45 46 47 48 49 50

000
ASUS43 KFSD 231510
RWRSD

WEATHER ROUNDUP FOR SOUTH DAKOTA
NATIONAL WEATHER SERVICE SIOUX FALLS SD
1000 AM CDT WED JUL 23 2014

NOTE: "FAIR" INDICATES FEW OR NO CLOUDS BELOW 12,000 FEET WITH NO
SIGNIFICANT WEATHER AND/OR OBSTRUCTIONS TO VISIBILITY.


SDZ001>005-009-010-012>017-231600-
NORTHWEST AND NORTH CENTRAL SOUTH DAKOTA

CITY           SKY/WX    TMP DP  RH WIND       PRES   REMARKS
BUFFALO          N/A     70  63  78 SE6       30.18S
FAITH            N/A     72  62  71 SE20      30.23F
MOBRIDGE       SUNNY     72  60  66 SE17G24   30.25S
$$

SDZ012>016-024>037-041>051-057-063-072>074-231600-
SOUTHWEST AND SOUTH CENTRAL SOUTH DAKOTA

CITY           SKY/WX    TMP DP  RH WIND       PRES   REMARKS
RAPID CTY ARPT MOSUNNY   75  59  57 SW14      30.24S
PIERRE         MOSUNNY   75  59  57 E18       30.24F
CUSTER         PTSUNNY   69  54  58 S7        30.40R
ELLSWORTH AFB  SUNNY     76  58  53 S17       30.24S
PHILIP         PTSUNNY   73  60  63 SE13      30.23R
PINE RIDGE     SUNNY     75  59  57 S15G22    30.24S
WINNER         FAIR      71  57  61 SE15G25   30.30R
$$

SDZ004>011-016>023-039-040-231600-
NORTHEAST SOUTH DAKOTA

CITY           SKY/WX    TMP DP  RH WIND       PRES   REMARKS
ABERDEEN       SUNNY     70  58  65 SE8       30.30S
WATERTOWN      SUNNY     72  53  51 E6        30.30S
SISSETON         N/A     69  60  73 CALM      30.29S
$$

SDZ017-020-022-023-036>040-048>070-231600-
SOUTHEAST SOUTH DAKOTA

CITY           SKY/WX    TMP DP  RH WIND       PRES   REMARKS
SIOUX FALLS    MOSUNNY   72  56  57 E8        30.29S
HURON          SUNNY     72  59  63 S7        30.30R
CHAMBERLAIN    PTSUNNY   69  58  65 SE14G20   30.29S
MITCHELL       SUNNY     72  59  63 SE8       30.30S
YANKTON        SUNNY     70  57  64 E5        30.29S
$$

ABBREVIATIONS USED IN REMARKS
   TC - TEMPERATURE IN CELSIUS
  WCI - WIND CHILL INDEX
   HX - HEAT INDEX
  VSB - VISIBILITY




USA.gov is the U.S. government's official web portal to all federal, state and local government web resources and services.